Regional Weather Roundup
Issued by NWS Bismarck, ND

Home | Current Version | Previous Version | Text Only | Print | Product List | Glossary On
Versions: 1 2 3 4 5 6 7 8 9 10 11 12 13 14 15 16 17 18 19 20 21 22 23 24 25 26 27 28 29 30 31 32 33 34 35 36 37 38 39 40 41 42 43 44 45 46 47 48 49 50
000
ASUS43 KBIS 301320
RWRBIS

NWR BROADCAST TEXT
NATIONAL WEATHER SERVICE BISMARCK ND
800 AM CDT THU OCT 30 2014

NOTE: "FAIR" INDICATES FEW OR NO CLOUDS BELOW 12,000 FEET WITH NO
SIGNIFICANT WEATHER AND/OR OBSTRUCTIONS TO VISIBILITY.


CITY           SKY/WX    TMP DP  RH WIND       PRES   REMARKS
WILLISTON      CLOUDY    37  33  85 N8        30.30R
MINOT          CLOUDY    31  29  92 N8        30.27R
MINOT AFB      CLOUDY    32  32  99 N7        30.27R
BISMARCK       CLEAR     32  30  92 NW12      30.23R
DICKINSON      CLOUDY    34  32  92 NW10      30.24R FOG
GARRISON         N/A     30  28  92 N5        30.25R
HETTINGER ARPT CLOUDY    33  32  96 NW15G23   30.25R FOG
JAMESTOWN      MOCLDY    34  31  88 N16       30.14R
BEACH            N/A     32  32 100 N8        30.28R
CARRINGTON     FAIR      27  27 100 NW8       30.21R WCI  18
CROSBY         CLOUDY    34  34 100 N9        30.30R
HARVEY         PTSUNNY   27  27 100 N7        30.25R WCI  19
HAZEN          CLOUDY    32  32 100 N7        30.28R
LINTON         PTSUNNY   32  32 100 N9        30.19R
MANDAN         FAIR      32  30  93 N12       30.24R
OAKES            N/A     37  37 100 N20       30.09R FOG
RUGBY          CLOUDY    28  28 100 NW6       30.25R
STANLEY        CLOUDY    32  32 100 NE5       30.26R
TIOGA          CLOUDY    32  32 100 NE7       30.30R
$$

CITY           SKY/WX    TMP DP  RH WIND       PRES   REMARKS
GRAND FORKS    MOCLDY    29  27  92 N10       30.16R WCI  20
GRAND FORKS AF CLOUDY    29  29  99 N9        30.17R
DEVILS LAKE    CLOUDY    34  25  69 N16       30.19R
FARGO          LGT RAIN  40  38  93 N13       30.11R FOG
CANDO          CLOUDY    32  30  93 N8        30.24R
CAVALIER       CLOUDY    36  32  87 N15G22    30.21R
GRAFTON        CLOUDY    34  32  93 N13       30.19R
GWINNER        CLOUDY    43  43 100 N16       30.09R
LANGDON        CLOUDY    32  28  86 N17G25    30.19R
ROLLA          CLOUDY    30  28  93 N17       30.24R WCI  18
WALHALLA         N/A     34  32  93 N18       30.22R
$$

CITY           SKY/WX    TMP DP  RH WIND       PRES   REMARKS
ABERDEEN       CLEAR     38  35  89 NW12      30.09R
MOBRIDGE       CLEAR     39  35  86 NW18      30.13R
BUFFALO          N/A     36  31  82 NW10      30.17R
RAPID CITY     CLEAR     39  30  70 N10       30.22R
GLASGOW        CLOUDY    35  31  85 NE6       30.30R
SIDNEY         CLOUDY    36  32  87 N8        30.32R
WOLF POINT     CLOUDY    38  31  76 NE10      30.31R
GLENDIVE       CLOUDY    36  32  87 N6        30.30R
MILES CITY     CLEAR     28  26  92 NW5       30.28R
BAKER          CLOUDY    33  32  96 N8        30.27R
$$

CITY           SKY/WX    TMP DP  RH WIND       PRES   REMARKS
BILLINGS       CLEAR     35  26  69 SW13      30.28R
GREAT FALLS    CLEAR     32  29  88 S9        30.23S
REGINA         CLOUDY    32  30  93 N8        30.34R
ESTEVAN        CLOUDY    34  30  86 N10       30.29R
$$




USA.gov is the U.S. government's official web portal to all federal, state and local government web resources and services.